Flag for New Zealand Weather past 2 weeks in Auckland, New Zealand

Now
63 °F

Passing clouds.


Feels Like: 63 °F
Forecast: 53 / 59 °F
Wind: 14 mph from Northwest

Location: Auckland Airport

Current Time: Aug 3, 2015 at 12:52:28 PM

Latest Report: Aug 3, 2015 at 12:30 PM


Visibility: N/A

Pressure: 30.18 "Hg

Humidity: 77%

Dew point: 55 °F

Location of AucklandLocation

Historic Weather in Auckland — Graph

°F

Auckland temperature yesterday

Maximum temperature yesterday: 61 °F (at 10:30 AM)
Minimum temperature yesterday: 50 °F (at 12:00 AM)
Average temperature yesterday: 55 °F

Past Weeks' High & Low Weather Summary

 TemperatureHumidityPressure
High63 °F (Aug 3, 11:00 AM)100% (Jul 22, 11:00 PM)30.60 "Hg (Jul 22, 11:00 PM)
Low39 °F (Jul 21, 8:00 AM)51% (Jul 30, 12:00 PM)29.68 "Hg (Jul 19, 11:00 AM)
Average52 °F86%30.21 "Hg
* Reported Jul 19 11:00 AM — Aug 3 11:30 AM, Auckland, Weather by CustomWeather, © 2015

Note: Actual official high and low records may vary slightly from our data, if they occured in-between our weather recording intervals... More about our weather records

Advertising

Auckland weather history for previous 24 hours

 ConditionsComfort  
Time TempWeatherWind HumidityBarometerVisibility
11:30 AM
Mon, Aug 3
61 °FPartly sunny.13 mph77%30.21 "HgN/A
11:00 AM63 °FBroken clouds.12 mph77%30.21 "HgN/A
10:30 AM61 °FBroken clouds.9 mph88%30.21 "HgN/A
10:00 AM59 °FBroken clouds.9 mph88%30.21 "HgN/A
9:30 AM59 °FPartly sunny.7 mph94%30.21 "HgN/A
9:00 AM57 °FBroken clouds.7 mph94%30.21 "HgN/A
8:30 AM54 °FPassing clouds.5 mph100%30.21 "HgN/A
8:00 AM54 °FCool.5 mph100%30.21 "HgN/A
7:30 AM50 °FCool.5 mph100%30.21 "HgN/A
7:00 AM50 °FFog.5 mph100%30.21 "Hg3 mi
6:30 AM50 °FFog.5 mph100%30.18 "Hg2 mi
6:00 AM52 °FPassing clouds.5 mph100%30.18 "Hg4 mi
5:30 AM52 °FFog.5 mph100%30.18 "Hg3 mi
5:00 AM54 °FCool.5 mph94%30.18 "HgN/A
4:30 AM54 °FCool.5 mph100%30.21 "HgN/A
4:00 AM54 °FPassing clouds.3 mph100%30.21 "HgN/A
3:30 AM54 °FPassing clouds.6 mph100%30.21 "HgN/A
3:00 AM54 °FCool.7 mph100%30.21 "HgN/A
2:30 AM55 °FCool.8 mph94%30.21 "HgN/A
2:00 AM55 °FPassing clouds.7 mph94%30.21 "HgN/A
1:30 AM55 °FPassing clouds.7 mph100%30.21 "HgN/A
1:00 AM55 °FPassing clouds.6 mph100%30.21 "HgN/A
12:30 AM55 °FPassing clouds.6 mph100%30.21 "HgN/A
12:00 AM57 °FPartly cloudy.7 mph94%30.24 "HgN/A
11:30 PM
Sun, Aug 2
55 °FPartly cloudy.7 mph100%30.24 "HgN/A
11:00 PM55 °FPassing clouds.8 mph100%30.24 "HgN/A
10:30 PM55 °FPassing clouds.7 mph100%30.24 "HgN/A
10:00 PM55 °FPassing clouds.6 mph100%30.24 "HgN/A
9:30 PM52 °FPassing clouds.5 mph100%30.24 "HgN/A
9:00 PM54 °FPassing clouds.3 mph100%30.24 "HgN/A
8:30 PM55 °FPartly cloudy.5 mph94%30.24 "HgN/A
8:00 PM55 °FCool.3 mph100%30.21 "HgN/A
7:30 PM55 °FLight rain. Passing clouds.3 mph100%30.21 "HgN/A
7:00 PM57 °FLight rain. Overcast.2 mph88%30.21 "HgN/A
6:30 PM57 °FOvercast.1 mph88%30.21 "HgN/A
6:00 PM55 °FPassing clouds.No wind94%30.21 "HgN/A
5:30 PM57 °FPassing clouds.No wind88%30.21 "HgN/A
5:00 PM57 °FPassing clouds.1 mph88%30.21 "HgN/A
4:30 PM59 °FScattered clouds.5 mph88%30.21 "HgN/A
4:00 PM59 °FPassing clouds.6 mph88%30.21 "HgN/A
3:30 PM61 °FCool.7 mph83%30.21 "HgN/A
3:00 PM61 °FScattered clouds.9 mph83%30.21 "HgN/A
2:30 PM59 °FMore clouds than sun.9 mph88%30.21 "HgN/A
2:00 PM59 °FPartly sunny.8 mph88%30.21 "HgN/A
1:30 PM59 °FCloudy.9 mph88%30.21 "HgN/A
1:00 PM57 °FSprinkles. More clouds than sun.10 mph100%30.21 "Hg4 mi
12:30 PM59 °FCloudy.10 mph88%30.21 "HgN/A
12:00 PM61 °FBroken clouds.8 mph83%30.24 "HgN/A
Weather by CustomWeather, © 2015

See weather overviewHow to use our weather pages